Home   Weather   San Luis   Past weeks
Flag for Argentina

Past Weather in San Luis, San Luis, Argentina — Yesterday and Last 2 Weeks

Now
45 °F

Fog.


Feels Like: 45 °F
Forecast: 48 / 36 °F
Wind: 2 mph from Southwest

Location: Villa Dolores Aerodrome

Current Time: May 22, 2019 at 8:24:46 am

Latest Report: May 22, 2019 at 7:00 am


Visibility: 2 mi

Pressure: 30.33 "Hg (27.74 "Hg at 731m altitude)

Humidity: 97%

Dew Point: 44 °F

Location of San LuisLocation

Past Weather in San Luis — Graph

°F

San Luis Temperature Yesterday

Maximum temperature yesterday: 52 °F (at 3:00 pm)
Minimum temperature yesterday: 43 °F (at 9:00 am)
Average temperature yesterday: 48 °F

High & Low Weather Summary for the Past Weeks

 TemperatureHumidityPressure
High75 °F (May 17, 4:00 pm)100% (May 9, 9:00 am)30.34 "Hg (May 9, 9:00 am)
Low41 °F (May 11, 8:00 am)33% (May 17, 3:00 pm)29.70 "Hg (May 17, 6:00 pm)
Average60 °F68%30.06 "Hg
* Reported May 7 7:00 am — May 22 7:00 am, San Luis. Weather by CustomWeather, © 2019

Note: Actual official high and low records may vary slightly from our data, if they occured in-between our weather recording intervals... More about our weather records

Advertising

San Luis Weather History for the Previous 24 Hours

Scroll right to see more
 ConditionsComfort  
Time TempWeatherWind HumidityBarometerVisibility
7:00 am
Wed, May 22
45 °FFog.2 mph97%30.33 "Hg2 mi
6:00 am45 °FLight rain. Low clouds.6 mph97%30.32 "Hg2 mi
3:00 am45 °FLight rain. Low clouds.2 mph99%30.32 "Hg3 mi
12:00 am46 °FFog.5 mph97%30.34 "Hg3 mi
9:00 pm
Tue, May 21
45 °FDrizzle. Low clouds.3 mph93%30.33 "Hg3 mi
8:00 pm46 °FDrizzle. Low clouds.3 mph95%30.32 "Hg3 mi
7:00 pm48 °FOvercast.7 mph78%30.27 "Hg19 mi
6:00 pm49 °FOvercast.10 mph77%30.24 "Hg19 mi
5:00 pm50 °FOvercast.15 mph78%30.26 "Hg19 mi
4:00 pm51 °FOvercast.6 mph73%30.23 "Hg19 mi
3:00 pm52 °FOvercast.3 mph72%30.23 "Hg19 mi
2:00 pm51 °FOvercast.2 mph71%30.24 "Hg19 mi
1:00 pm50 °FOvercast.2 mph74%30.26 "Hg19 mi
12:00 pm49 °FOvercast.6 mph72%30.27 "Hg19 mi
11:00 am48 °FOvercast.5 mph75%30.26 "Hg19 mi
10:00 am46 °FOvercast.2 mph76%30.24 "Hg19 mi
9:00 am43 °FScattered clouds.No wind85%30.24 "Hg12 mi
8:00 am45 °FPassing clouds.2 mph79%30.22 "Hg12 mi
Weather by CustomWeather, © 2019

See weather overview